Flag for U.S.A. Weather past 2 weeks in Dallas, Texas, U.S.A.

Now
83 °F

Partly cloudy.


Feels Like: 88 °F
Forecast: 72 / 84 °F
Wind: 17 mph from Southeast

Location: Dallas Love Field

Current Time: Jul 30, 2014 at 11:09:37 PM

Latest Report: Jul 30, 2014 at 9:53 PM


Visibility: 10 mi

Pressure: 29.90 "Hg

Humidity: 68%

Dew point: 71 °F

Location of DallasLocation

Historic Weather in Dallas — Graph

°F

Dallas temperature yesterday

Maximum temperature yesterday: 85 °F (at 12:53 PM)
Minimum temperature yesterday: 75 °F (at 5:53 AM)
Average temperature yesterday: 80 °F

Past Weeks' High & Low Weather Summary

 TemperatureHumidityPressure
High102 °F (Jul 27, 3:53 PM)93% (Jul 17, 9:53 AM)30.13 "Hg (Jul 17, 9:53 AM)
Low65 °F (Jul 18, 6:53 AM)28% (Jul 27, 5:53 PM)29.85 "Hg (Jul 16, 7:53 PM)
Average82 °F63%29.99 "Hg
* Reported Jul 15 9:53 PM — Jul 30 9:53 PM, Dallas, Weather by CustomWeather, © 2014

Note: Actual official high and low records may vary slightly from our data, if they occured in-between our weather recording intervals... More about our weather records

Advertising

Dallas weather history for previous 24 hours

 ConditionsComfort  
Time TempWeatherWind HumidityBarometerVisibility
9:53 PM
Jul 30
83 °FPartly cloudy.17 mph68%29.90 "Hg10 mi
8:53 PM85 °FBroken clouds.16 mph63%29.88 "Hg10 mi
7:53 PM86 °FBroken clouds.14 mph59%29.88 "Hg10 mi
6:53 PM88 °FBroken clouds.16 mph55%29.88 "Hg10 mi
5:53 PM89 °FBroken clouds.17 mph53%29.89 "Hg10 mi
4:53 PM88 °FMostly cloudy.16 mph55%29.91 "Hg10 mi
3:53 PM85 °FMostly cloudy.15 mph63%29.94 "Hg10 mi
2:53 PM84 °FPartly sunny.15 mph63%29.97 "Hg10 mi
1:53 PM84 °FPartly sunny.15 mph59%29.99 "Hg10 mi
12:53 PM81 °FBroken clouds.14 mph62%30.01 "Hg10 mi
11:53 AM79 °FCloudy.13 mph82%30.03 "Hg7 mi
10:53 AM76 °FFog.13 mph91%30.05 "Hg6 mi
9:53 AM76 °FLight rain. Fog.10 mph91%30.06 "Hg4 mi
8:53 AM76 °FCloudy.9 mph85%30.06 "Hg5 mi
7:53 AM77 °FLight rain. Mostly cloudy.5 mph82%30.05 "Hg6 mi
6:53 AM77 °FMostly cloudy.12 mph77%30.02 "Hg10 mi
5:53 AM77 °FMostly cloudy.10 mph69%30.01 "Hg10 mi
4:53 AM78 °FMostly cloudy.7 mph64%30.01 "Hg10 mi
3:53 AM77 °FPartly cloudy.6 mph66%30.01 "Hg10 mi
2:53 AM77 °FPartly cloudy.7 mph66%30.00 "Hg10 mi
1:53 AM77 °FPassing clouds.3 mph69%30.02 "Hg10 mi
12:53 AM78 °FPassing clouds.No wind64%30.03 "Hg10 mi
11:53 PM
Jul 29
79 °FPassing clouds.3 mph58%30.03 "Hg10 mi
Weather by CustomWeather, © 2014

See weather overviewHow to use our weather pages